Lake Wylie Weather Center

Moon Phase Calendar



Lake Wylie Water Level
Online Cameras

 


      

Current Conditions in Lake Wylie
11/24/2020 12:42:23 PM

53°F
Feels Like 47
Clear
Humidity
43%
Pressure
30.39"
Wind
3.7 mph (SE)
Dew Point
31°F
UV Index
3/10 (Moderate)
Visibility
6 mi

Hourly Forecast

Date & Time Tue, Nov 24
12:00 PM
Tue, Nov 24
1:00 PM
Tue, Nov 24
2:00 PM
Tue, Nov 24
3:00 PM
Tue, Nov 24
4:00 PM
Tue, Nov 24
5:00 PM
Tue, Nov 24
6:00 PM
Tue, Nov 24
7:00 PM
Tue, Nov 24
8:00 PM
Tue, Nov 24
9:00 PM
Tue, Nov 24
10:00 PM
Tue, Nov 24
11:00 PM
Wed, Nov 25
12:00 AM
Wed, Nov 25
1:00 AM
Wed, Nov 25
2:00 AM
Wed, Nov 25
3:00 AM
Wed, Nov 25
4:00 AM
Wed, Nov 25
5:00 AM
Wed, Nov 25
6:00 AM
Wed, Nov 25
7:00 AM
Wed, Nov 25
8:00 AM
Wed, Nov 25
9:00 AM
Wed, Nov 25
10:00 AM
Wed, Nov 25
11:00 AM
Wed, Nov 25
12:00 PM
Wed, Nov 25
1:00 PM
Wed, Nov 25
2:00 PM
Wed, Nov 25
3:00 PM
Wed, Nov 25
4:00 PM
Wed, Nov 25
5:00 PM
Wed, Nov 25
6:00 PM
Wed, Nov 25
7:00 PM
Wed, Nov 25
8:00 PM
Wed, Nov 25
9:00 PM
Wed, Nov 25
10:00 PM
Wed, Nov 25
11:00 PM
Thu, Nov 26
12:00 AM
Thu, Nov 26
1:00 AM
Thu, Nov 26
2:00 AM
Thu, Nov 26
3:00 AM
Thu, Nov 26
4:00 AM
Thu, Nov 26
5:00 AM
Thu, Nov 26
6:00 AM
Thu, Nov 26
7:00 AM
Thu, Nov 26
8:00 AM
Thu, Nov 26
9:00 AM
Thu, Nov 26
10:00 AM
Thu, Nov 26
11:00 AM
Condition
Clear

Clouds

Clouds

Clouds

Clouds

Clouds

Clouds

Clouds

Clouds

Clouds

Clouds

Clouds

Clouds

Clouds

Clouds

Clouds

Clouds

Clouds

Clouds

Clouds

Clouds

Clouds

Clouds

Clouds

Clouds

Clouds

Clouds

Clouds

Clouds

Clouds

Clouds

Clouds

Clouds

Clouds

Clouds

Clouds

Clouds

Clouds

Clouds

Clouds

Clouds

Clouds

Rain

Rain

Rain

Rain

Rain

Rain
Temperature 53°F54°F54°F54°F53°F49°F48°F46°F46°F45°F44°F43°F43°F43°F43°F45°F46°F47°F48°F48°F49°F50°F52°F54°F54°F56°F56°F55°F54°F54°F54°F53°F54°F54°F55°F55°F56°F56°F56°F57°F59°F58°F58°F58°F58°F61°F63°F64°F
Feels Like 47°F48°F49°F49°F48°F44°F42°F41°F40°F40°F39°F38°F38°F37°F38°F40°F41°F42°F43°F44°F45°F47°F49°F51°F52°F53°F54°F54°F53°F52°F52°F51°F52°F53°F53°F53°F54°F55°F54°F54°F56°F56°F56°F56°F56°F59°F61°F62°F
Cloudiness 1%21%79%94%96%96%97%98%100%100%100%100%100%100%100%100%100%100%100%100%100%100%100%100%100%100%100%100%100%100%100%100%100%100%100%100%100%100%100%100%100%100%100%95%55%49%64%73%
Visibility 6 mi6 mi6 mi6 mi6 mi6 mi6 mi6 mi6 mi6 mi6 mi6 mi6 mi6 mi6 mi6 mi6 mi6 mi6 mi6 mi6 mi6 mi6 mi6 mi6 mi6 mi6 mi6 mi6 mi6 mi6 mi6 mi6 mi6 mi6 mi6 mi6 mi6 mi6 mi6 mi6 mi6 mi6 mi6 mi6 mi6 mi6 mi6 mi
Precipitation 0%0%0%0%0%0%0%0%0%0%0%0%0%0%0%0%0%0%0%0%0%1%1%3%2%0%0%0%0%0%0%0%0%0%0%0%0%0%0%0%0%6%25%54%68%72%80%80%
Humidity 43%44%43%45%51%57%59%61%62%64%65%67%67%68%68%63%62%63%66%69%72%74%76%73%74%74%75%81%83%86%87%91%92%92%93%93%94%95%96%94%91%94%95%96%95%89%87%87%
Dew Point 31°F32°F32°F33°F36°F35°F34°F34°F34°F34°F33°F33°F33°F33°F33°F34°F34°F35°F37°F39°F40°F43°F44°F46°F47°F48°F49°F49°F50°F50°F50°F50°F52°F52°F53°F53°F54°F55°F55°F56°F56°F56°F57°F57°F57°F58°F59°F60°F
Pressure 30.39"30.39"30.36"30.33"30.33"30.36"30.39"30.39"30.42"30.42"30.42"30.39"30.39"30.39"30.39"30.36"30.36"30.36"30.36"30.36"30.36"30.36"30.33"30.33"30.3"30.27"30.24"30.24"30.21"30.21"30.21"30.24"30.24"30.21"30.18"30.18"30.15"30.15"30.12"30.12"30.09"30.09"30.12"30.12"30.12"30.12"30.12"30.12"
Wind Speed 3.9 mph3.7 mph3.6 mph3.7 mph3.3 mph3.2 mph3.5 mph3.7 mph3.8 mph3.4 mph3.6 mph3.4 mph3 mph3.4 mph3.1 mph3.2 mph3.1 mph3.2 mph3.1 mph2.8 mph3.3 mph2.9 mph1.8 mph4.2 mph3 mph3.2 mph2.4 mph2.5 mph3 mph3.2 mph2.9 mph3.8 mph3.6 mph3.6 mph4 mph5.1 mph5 mph5.1 mph5.1 mph8.2 mph7.8 mph6.8 mph6.6 mph6.6 mph7.4 mph9.2 mph8.8 mph8.6 mph
Wind
Direction
127°
SE
136°
SE
140°
SE
135°
SE
124°
SE
115°
ESE
120°
ESE
124°
SE
125°
SE
128°
SE
144°
SE
148°
SSE
142°
SE
137°
SE
137°
SE
133°
SE
126°
SE
128°
SE
135°
SE
124°
SE
114°
ESE
140°
SE
197°
SSW
233°
SW
173°
S
168°
SSE
162°
SSE
171°
S
123°
ESE
123°
ESE
135°
SE
132°
SE
137°
SE
137°
SE
147°
SSE
149°
SSE
154°
SSE
171°
S
181°
S
182°
S
188°
S
203°
SSW
207°
SSW
206°
SSW
208°
SSW
221°
SW
226°
SW
227°
SW

Daily Forecast

Date High Low Precip. Humidity
Today
Nov 24

Clouds
54 °F
40 °F
0%
44%
Wednesday
Nov 25

Rain
56 °F
43 °F
20%
74%
Thursday
Nov 26

Rain
67 °F
56 °F
80%
86%
Friday
Nov 27

Rain
69 °F
58 °F
39%
77%
Saturday
Nov 28

Rain
67 °F
56 °F
71%
77%
Sunday
Nov 29

Rain
52 °F
49 °F
100%
88%
Monday
Nov 30

Rain
50 °F
31 °F
100%
55%
Tuesday
Dec 1

Clear
38 °F
26 °F
0%
58%
Wednesday
Dec 2

Clouds
41 °F
30 °F
0%
56%
Thursday
Dec 3

Rain
54 °F
36 °F
100%
93%
Friday
Dec 4

Rain
42 °F
35 °F
39%
74%
Saturday
Dec 5

Clouds
43 °F
34 °F
82%
68%
Sunday
Dec 6

Clear
56 °F
37 °F
0%
47%
Monday
Dec 7

Clear
56 °F
36 °F
0%
39%
Tuesday
Dec 8

Clear
56 °F
38 °F
0%
47%
Wednesday
Dec 9

Clouds
49 °F
38 °F
0%
56%


Temperature 8-14 Day Outlook



Precipitation 8-14 Day Outlook




Quick Links
Lake Wylie News
Lake Wylie Photos
Lake Wylie Videos




About Us
Contact Us
Site Map
Search Site
Advertise With Us
   
Wylie.USLakes.info
THE LAKE WYLIE WEBSITE

Copyright 2020, Lakes Online
Privacy    |    Legal